NSS-12

Last updated on Thu Oct 30 2025 00:02:48 GMT+0000 (Coordinated Universal Time)

1 36032U 09058A 25302.48234442 .00000081 00000+0 00000+0 0 9996 2 36032 0.0688 68.7149 0003368 155.3116 44.7133 1.00271474 58602
UTC large
Height (km)
Speed (km/s)
/
Latitude / Longitude
Inclination (degrees)
Orbital Period (minutes)
Azimuth
Elevation
Range (km)
Doppler Factor

Next 0 passes for location: London (51.5072 / 0.1276)

Sorry there are no passes over London.